Regional Weather Roundup
Issued by NWS

Home | Current Version | Previous Version | Text Only | Print | Product List | Glossary On
Versions: 1 2 3 4 5 6 7 8 9 10 11 12 13 14 15 16 17 18 19 20 21 22 23 24 25 26 27 28 29 30 31 32 33 34 35 36 37 38 39 40 41 42 43 44 45 46 47 48 49 50
000
ASUS43 KLSX 180859
RWRMO

WEATHER SUMMARY FOR MISSOURI
NATIONAL WEATHER SERVICE SPRINGFIELD MO
400 AM CDT SAT APR 18 2015

NOTE: "FAIR" INDICATES FEW OR NO CLOUDS BELOW 12,000 FEET WITH NO
       SIGNIFICANT WEATHER AND/OR OBSTRUCTIONS TO VISIBILITY.
       CURRENT SKY AND/OR WEATHER CONDITIONS ARE NOT AVAILABLE FOR
       CHILLICOTHE AND FARMINGTON.

MOZ001>031-035>038-043-044-053-054-181000-
...NORTHERN AND WESTERN MISSOURI...

CITY           SKY/WX    TMP DP  RH WIND       PRES   REMARKS
KANSAS CTY INT CLOUDY    63  56  78 E8        29.94F
KANSAS C DTWN  CLOUDY    64  56  75 E3        29.93F
LEE`S SUMMIT   CLOUDY    61  56  83 E6        29.94F
ST JOSEPH      CLOUDY    61  56  83 CALM      29.93F
CHILLICOTHE      N/A     65  58  78 E3        29.96F
KIRKSVILLE     CLOUDY    61  54  77 SE5       29.99S

$$
MOZ066>068-077>081-088>096-101>105-181000-
...SOUTHWEST MISSOURI...

CITY           SKY/WX    TMP DP  RH WIND       PRES   REMARKS
SPRINGFIELD    CLOUDY    62  59  90 SE8       29.97S
JOPLIN         CLOUDY    63  59  87 SE8       29.94F

$$
MOZ032>034-039>042-045>050-055>058-069>072-181000-
...CENTRAL MISSOURI...

CITY           SKY/WX    TMP DP  RH WIND       PRES   REMARKS
COLUMBIA       MOCLDY    63  57  81 SE7       29.98S
JEFFERSON CITY PTCLDY    64  56  75 E5        29.98S
ROLLA          PTCLDY    60  57  89 SE8       29.98S
SEDALIA        MOCLDY    61  55  81 SE3       29.96S
OSAGE BEACH    CLOUDY    63  55  77 SE3       29.98S

$$
MOZ051-052-059>065-181000-
...EAST CENTRAL MISSOURI...

CITY           SKY/WX    TMP DP  RH WIND       PRES   REMARKS
ST LOUIS INTL  PTCLDY    62  54  74 CALM      30.01S
SPIRIT OF STL  PTCLDY    56  54  93 CALM      29.99S FOG
ST CHARLES     PTCLDY    57  53  86 E3        30.00S FOG

$$
MOZ072>076-082>087-097>100-106>115-181000-
...SOUTH CENTRAL AND SOUTHEAST MISSOURI...

CITY           SKY/WX    TMP DP  RH WIND       PRES   REMARKS
CAPE GIRARDEAU FOG       56  56 100 CALM      30.00R VSB 1/2
FARMINGTON     MOCLDY    55  54  94 CALM      30.04S
POPLAR BLUFF   CLOUDY    57  55  93 CALM      29.99S FOG
WEST PLAINS    FOG       63  61  93 S5        30.01S VSB 3/4

$$



USA.gov is the U.S. government's official web portal to all federal, state and local government web resources and services.